Location: Corte Bragagnani
(45.3000°N, 11.1000°E)
Time: 12:44:05
(UTC+00:00)

STARLINK-1229 - Pass Details

Date: 09 April 2020
Orbit: 378 x 381 km, 53.0° (Epoch: 26 May)

Event Time Altitude Azimuth Distance (km) Brightness Sun altitude
Rises 19:52:45 0° 299° (WNW) 2,261 8.4 -19.8°
Reaches altitude 10° 19:54:51 10° 293° (WNW) 1,404 6.8 -20.1°
Enters shadow 19:57:33 44° 241° (WSW) 538 3.7 -20.5°
